Regional Weather Roundup
Issued by NWS State College, PA

Home | Current Version | Previous Version | Text Only | Print | Product List | Glossary On
Versions: 1 2 3 4 5 6 7 8 9 10 11 12 13 14 15 16 17 18 19 20 21 22 23 24 25 26 27 28 29 30 31 32 33 34 35 36 37 38 39 40 41 42 43 44 45 46 47 48 49 50
000
ASUS41 KCTP 310603
RWRCTP

REGIONAL WEATHER ROUNDUP
NATIONAL WEATHER SERVICE STATE COLLEGE PA
200 AM EDT SUN AUG 31 2014

Note: "fair" indicates few or no clouds below 12,000 feet with no
significant weather and/or obstructions to visibility.

* = STATION THAT DOES NOT REPORT PRECIPITATION /E.G. RAIN...SNOW...ETC/
    THUNDER OR FOG.

PAZ002>004-007>009-013>016-020>023-029>032-310700-
WESTERN PENNSYLVANIA

CITY           SKY/WX    TMP DP  RH WIND       PRES   REMARKS
ERIE           MOCLDY    80  65  59 SW13      29.98R
MEADVILLE      MOCLDY    74  66  76 SW7       30.05R
FRANKLIN*      CLOUDY    72  64  78 S7        30.08R
NEW CASTLE     LGT RAIN  74  69  84 CALM      30.06R
BEAVER COUNTY  NOT AVBL
BUTLER*        MOCLDY    75  64  69 S3        30.09R
PITTSBURGH INT CLOUDY    76  67  73 S3        30.06S
PITTSBURGH     FAIR      74  65  73 S8        30.06S
INDIANA*       MOCLDY    73  68  83 S6        30.12F
LATROBE        PTCLDY    79  68  69 S6        30.08F
WASHINGTON CO* FAIR      70  66  88 CALM      30.08S
$$

PAZ004>006-010>012-017>019-024>028-033>037-041-042-045-046-049>053-310700-
CENTRAL PENNSYLVANIA

CITY           SKY/WX    TMP DP  RH WIND       PRES   REMARKS
BRADFORD       MOCLDY    70  66  87 VRB5      30.09S
DUBOIS         FAIR      71  67  87 S7        30.09S
CLEARFIELD     FAIR      66  65  96 N3        30.11S FOG
JOHNSTOWN      FAIR      69  66  90 S6        30.15S
ALTOONA        MOCLDY    70  69  97 CALM      30.13S
STATE COLLEGE  CLOUDY    73  69  88 SW8       30.12S
WILLIAMSPORT   CLOUDY    74  64  71 E8        30.09S
SELINSGROVE    CLOUDY    70  68  93 CALM      30.11S
FT INDIANTOWN  CLOUDY    71  70  98 N3        30.13F
CAPITAL CITY   CLOUDY    73  68  84 E3        30.11F
HARRISBURG     CLOUDY    74  68  81 SE5       30.11S
YORK           FAIR      73  70  90 S5        30.11F
$$

PAZ038>040-043-044-047-048-054-055-060>062-067>071-310700-
EASTERN PENNSYLVANIA

CITY           SKY/WX    TMP DP  RH WIND       PRES   REMARKS
SCRANTON       CLOUDY    72  64  76 SW7       30.13S
MOUNT POCONO   CLOUDY    66  61  84 SW3       30.18F
ALLENTOWN      CLOUDY    73  63  70 CALM      30.14F
QUAKERTOWN*    CLOUDY    72  64  78 MISG      30.15F
READING        CLOUDY    73  65  75 S7        30.12F
LANCASTER      CLOUDY    72  67  84 SE7       30.12F
COATESVILLE    CLOUDY    70  70 100 SE7       30.16F
POTTSTOWN      CLOUDY    71  65  81 VRB3      30.15F
BLUE BELL      CLOUDY    72  66  83 CALM      30.14F
DOYLESTOWN     CLOUDY    68  63  84 S3        30.14F
WILLOW GROVE   NOT AVBL
NORTH PHILA    CLOUDY    74  61  63 S3        30.15F
PHILADELPHIA   CLOUDY    73  65  75 S6        30.15F
$$



USA.gov is the U.S. government's official web portal to all federal, state and local government web resources and services.